{"data":{"norad_id":47649,"epoch":"2026-07-19T00:31:29.724384Z","epoch_age_seconds":5510209,"freshness":"OLD","line1":"1 47649U 21012AF  26200.02187181  .05582092  12246-4  64148-3 0  9990","line2":"2 47649  53.0144  71.8479 0011451 270.6530  89.3202 16.35836375301601","mean_motion":16.35836375,"eccentricity":0.0011451,"inclination_deg":53.0144,"raan_deg":71.8479,"arg_perigee_deg":270.653,"mean_anomaly_deg":89.3202,"bstar":0.00064148,"rev_number":30160,"period_min":88.028364083786,"perigee_km":169.39563411466,"apogee_km":184.40798399516,"semimajor_km":6555.0388090549,"source":"CELESTRAK","updated_at":"2026-07-19T09:00:48.545176Z"}}